Wind_Speed
31 30 29 28 27 28 19 20 22 29 30 28 22 20 20 19 23 25 20 21 22 20 18 19 25 27 34 38 42 42 34 32 31 35 30 28 33 31 29 26 22 20 20 18 18 15 14 12 10
30 29 28 26 23 14 14 30 31 30 31 25 21 19 20 22 24 26 23 23 25 25 21 18 18 24 28 40 42 42 34 34 32 32 34 33 35 31 31 32 29 24 23 25 19 16 13 12 13
28 28 27 24 24 16 13 31 32 32 31 25 21 22 24 25 24 27 26 27 26 27 26 24 20 22 28 31 41 44 38 39 29 31 34 35 36 39 38 38 31 27 28 20 16 17 15 15 12
26 27 26 23 19 17 21 28 30 29 32 24 23 22 28 24 25 25 23 27 29 26 28 25 26 25 26 34 34 41 47 43 33 25 24 32 33 33 35 35 29 28 27 21 24 19 15 15 12
26 25 24 25 21 20 25 26 27 29 28 28 24 23 24 24 26 25 24 28 29 27 29 26 30 31 34 44 34 37 42 39 30 29 22 28 36 32 38 35 30 27 27 23 24 19 19 15 12
28 24 23 20 16 24 26 26 27 30 29 27 27 26 26 26 27 28 32 37 31 28 27 28 34 28 28 28 39 44 37 37 31 15 17 25 30 35 35 34 30 30 27 26 25 20 19 16 14
26 26 22 21 17 22 31 26 28 28 28 23 30 25 27 26 27 30 34 32 32 32 28 26 28 27 29 30 26 33 36 40 40 29 25 23 24 24 29 34 34 32 28 28 25 22 22 19 17
26 26 25 20 20 23 32 25 28 28 28 27 30 26 25 26 26 29 27 32 33 33 28 25 26 28 27 23 22 26 37 28 27 26 29 24 31 27 40 37 37 34 31 28 24 24 21 21 17
27 26 24 17 21 22 30 27 29 28 27 27 27 26 23 23 25 28 30 34 35 31 27 29 26 22 26 22 19 21 23 26 31 31 28 31 33 39 39 38 39 37 31 28 26 24 23 20 15
27 26 21 18 24 25 27 28 29 28 27 25 27 23 20 22 27 30 33 35 31 26 23 26 24 25 29 26 22 22 21 31 31 28 34 32 28 37 36 49 45 38 33 29 29 27 24 17 19
27 25 24 22 23 25 25 28 29 27 25 24 24 20 19 22 23 26 32 31 26 19 23 18 8 18 27 28 30 30 28 29 29 34 29 27 25 26 29 42 49 39 36 31 29 28 24 20 20
31 26 26 23 25 24 25 28 28 28 26 24 20 21 22 21 24 25 29 26 21 16 19 13 8 14 17 29 32 31 33 34 41 29 35 26 26 30 28 38 42 39 34 31 32 31 25 21 23
31 27 26 25 26 24 25 25 29 26 27 20 16 18 19 21 21 25 28 22 15 11 16 11 12 14 14 32 33 39 39 34 26 35 33 25 24 27 27 41 40 37 35 34 34 30 26 21 25
31 30 26 27 24 25 23 23 28 24 25 18 16 15 16 19 22 24 25 19 14 12 14 13 11 12 19 33 46 38 47 46 40 35 28 28 32 31 25 42 42 41 38 36 34 30 26 25 26
33 30 26 27 24 24 22 20 24 24 22 20 14 15 17 19 21 23 22 19 14 14 11 14 13 7 16 22 23 35 47 40 40 49 34 40 42 34 32 44 49 45 39 36 35 31 31 27 25
33 29 26 22 25 23 20 14 23 22 21 19 17 15 18 18 19 20 18 18 13 13 12 14 9 8 7 15 22 29 35 32 34 29 29 34 36 28 30 35 49 50 40 38 37 34 29 26 25
32 27 22 22 28 23 18 16 21 21 21 18 20 17 17 19 16 18 16 16 16 14 12 15 9 5 3 8 14 22 34 32 35 36 32 30 29 30 29 26 50 49 40 41 38 35 32 30 25
30 25 21 24 20 18 20 14 22 25 18 18 20 18 19 16 15 16 15 12 14 16 14 16 10 10 5 10 12 22 28 26 31 34 30 28 28 37 33 34 38 50 44 43 38 38 33 33 33
31 22 22 23 19 22 18 17 19 18 24 20 21 20 18 14 15 16 14 11 11 13 11 10 12 12 11 17 12 17 19 23 31 32 30 30 27 29 26 27 27 33 53 43 36 35 31 33 33
31 29 29 25 26 21 20 20 18 19 19 24 23 21 17 11 10 13 13 10 9 9 6 5 11 9 12 13 16 18 20 16 18 25 30 29 29 27 22 16 15 26 31 31 31 29 28 28 27
33 29 26 26 22 20 19 22 18 20 21 24 23 23 16 11 9 11 11 8 6 8 7 2 6 10 13 14 13 14 15 15 17 17 16 18 21 21 26 18 20 23 24 25 26 27 26 18 19
34 27 29 29 29 24 20 20 13 15 17 26 24 22 15 8 5 10 11 8 5 4 5 5 3 3 11 16 18 17 21 22 22 24 20 21 17 19 23 24 23 26 26 27 28 28 26 18 19
28 31 35 31 31 28 21 21 12 14 18 21 20 22 15 9 4 5 9 11 6 2 2 3 2 2 3 4 12 21 25 25 23 22 23 23 20 21 25 25 29 24 27 28 29 24 19 21 21
33 38 36 32 31 34 19 18 13 10 18 23 17 18 13 10 8 7 7 7 7 5 2 2 3 1 2 5 8 14 25 27 25 25 22 25 27 26 27 26 25 28 28 27 26 23 21 23 24
41 41 35 33 35 31 19 18 14 12 22 20 17 15 14 11 8 11 9 6 6 3 2 0 2 4 4 3 3 3 7 20 23 26 26 20 18 24 33 31 31 28 33 28 29 26 25 26 25
44 42 33 32 29 23 19 21 17 18 26 22 15 17 16 17 16 14 12 7 6 5 2 2 2 2 4 6 6 5 5 5 8 10 13 13 10 8 11 20 24 23 25 24 25 25 25 29 26
43 45 36 26 21 22 22 22 23 17 21 22 21 18 17 16 17 15 12 10 8 6 6 7 7 5 4 6 7 7 8 9 11 12 13 14 13 13 12 12 13 17 19 21 22 22 25 27 25
49 40 39 39 33 32 20 11 18 21 22 23 20 24 20 18 17 18 16 14 12 11 8 10 11 11 11 9 8 9 11 10 11 13 14 15 14 14 14 14 16 19 19 20 21 21 24 25 26
49 47 45 39 39 26 24 19 23 27 23 22 27 24 20 22 21 21 21 19 16 14 14 13 13 11 9 10 8 8 10 11 13 16 17 16 16 16 17 19 21 22 23 24 26 25 26 29 31
45 45 43 42 29 35 27 24 27 24 20 24 27 23 23 25 26 24 23 23 22 22 19 19 17 15 14 13 13 11 10 11 14 17 20 20 19 21 24 22 25 24 25 28 28 28 30 33 35
Wind_Direction
297 301 304 307 309 309 318 271 297 296 297 290 279 283 278 282 278 270 270 274 283 289 290 281 263 252 245 243 243 242 240 235 243 237 234 224 215 214 202 205 223 235 227 222 224 219 216 211 217
296 299 301 307 307 313 308 273 299 296 298 288 280 281 279 283 288 286 286 292 293 290 286 279 268 260 249 241 242 242 231 228 227 227 226 224 217 206 208 203 227 235 232 226 220 216 221 218 219
294 297 300 303 304 302 262 273 294 299 295 280 284 287 282 283 297 294 292 287 284 283 281 277 267 262 257 249 242 243 236 228 234 218 223 222 223 218 219 227 227 222 228 216 219 232 228 220 221
291 294 293 293 299 291 293 286 291 300 290 281 283 286 286 286 294 293 295 290 289 281 278 270 262 264 253 251 236 239 238 229 234 230 214 223 220 217 216 216 209 210 217 222 237 223 231 218 232
286 289 291 295 294 284 295 289 293 296 285 290 290 286 283 287 287 290 293 292 286 280 280 267 253 246 255 226 227 218 227 226 231 223 215 220 218 213 208 202 203 206 213 228 236 226 225 226 232
284 281 285 284 291 280 296 294 295 301 295 292 290 283 283 282 285 290 293 299 289 292 281 273 254 229 249 259 256 223 198 212 213 228 230 226 222 219 206 195 202 206 216 235 226 221 228 221 230
276 279 275 270 273 270 292 293 295 303 297 281 291 284 288 284 291 296 297 299 292 293 282 273 266 261 255 249 249 209 183 203 217 222 231 232 234 234 221 199 205 211 216 223 218 224 222 225 231
266 268 273 270 273 276 284 289 293 299 297 292 285 286 284 299 296 298 300 298 298 295 285 275 268 264 242 227 196 181 201 190 202 212 215 229 219 222 206 207 205 211 210 217 218 225 222 227 229
259 263 268 268 272 273 279 286 291 296 298 293 286 285 290 299 300 300 299 297 300 292 280 277 259 253 233 226 208 219 213 201 205 211 206 217 215 208 224 210 216 208 217 212 219 224 226 224 228
256 256 259 256 264 267 277 286 290 298 301 290 289 278 287 296 298 305 307 306 300 294 291 278 271 228 222 224 217 214 219 205 208 209 214 213 217 219 223 219 210 207 210 212 219 224 228 225 224
251 254 249 252 260 263 273 279 284 293 297 277 287 286 287 298 309 312 314 314 301 300 294 267 246 231 217 214 215 216 210 219 214 218 218 209 218 211 225 224 213 213 206 214 222 227 229 223 232
245 246 250 254 259 261 270 273 280 290 293 281 287 281 286 302 307 313 317 316 308 292 283 268 265 248 226 217 220 221 219 216 210 223 229 220 243 223 226 222 208 208 208 216 225 229 232 232 241
243 244 246 251 256 263 270 277 283 290 290 284 277 281 290 304 307 313 319 320 320 300 282 262 267 221 232 212 207 211 216 221 212 236 219 244 221 220 236 214 212 209 212 219 229 234 239 243 247
240 239 244 252 257 266 272 276 286 285 290 272 279 285 291 299 305 314 317 327 322 304 300 272 283 236 221 212 215 229 221 219 233 230 248 238 229 241 238 216 216 215 215 220 230 239 242 244 250
238 240 244 252 259 267 272 283 280 282 286 270 280 287 293 297 301 309 316 321 328 306 295 291 300 266 241 214 208 220 224 224 228 233 241 246 241 222 225 220 221 218 222 224 231 237 240 246 253
237 240 243 252 258 263 270 279 280 284 293 278 274 279 291 295 305 309 316 317 326 301 284 276 281 245 269 209 205 210 208 213 229 233 225 221 230 233 231 232 230 224 223 226 232 236 244 245 254
232 237 245 246 257 258 269 274 271 290 296 276 273 278 285 290 299 313 318 315 324 307 279 255 254 255 232 201 203 184 206 226 222 219 218 223 230 232 239 245 230 228 228 227 232 237 241 248 255
234 235 240 238 257 259 270 264 270 286 291 271 269 274 278 275 287 309 313 317 320 321 291 250 233 244 238 197 188 194 206 216 207 214 225 234 232 230 237 234 240 228 233 229 233 236 241 248 255
228 230 226 246 250 254 275 258 269 264 283 279 271 274 265 265 290 305 304 320 325 328 304 234 223 229 243 213 208 210 213 217 218 224 230 227 234 234 237 241 237 249 231 231 239 240 247 253 254
223 225 225 234 246 256 263 258 256 256 265 284 279 273 264 263 290 300 301 323 330 339 322 229 220 234 208 223 235 222 198 197 206 214 217 221 225 231 230 220 232 231 232 234 239 245 244 252 260
218 219 227 236 246 251 257 256 264 254 264 272 283 273 263 266 289 296 302 321 342 345 344 297 243 228 224 232 238 233 238 239 234 217 229 224 221 224 218 232 229 234 234 236 241 250 257 255 267
217 213 226 233 239 250 250 260 268 253 271 279 293 272 256 252 278 305 305 315 331 339 0 6 346 254 235 235 243 243 231 225 228 231 246 215 229 242 234 240 243 239 241 243 250 258 256 243 239
211 218 224 231 239 246 249 269 271 270 246 260 281 279 247 228 232 305 312 320 318 288 310 321 6 0 321 283 259 242 234 241 247 244 238 245 245 257 248 247 246 246 243 245 250 255 259 248 226
198 220 224 229 238 245 242 257 266 255 248 257 265 270 247 230 243 258 284 300 320 313 251 230 283 282 338 303 298 253 234 234 245 254 244 244 247 262 249 248 248 246 253 249 243 231 226 233 223
206 216 222 230 237 245 248 248 252 223 249 258 257 255 238 231 256 269 256 269 277 307 306 256 211 269 253 251 292 321 216 224 239 252 244 249 264 256 247 247 249 253 250 249 239 228 225 228 230
212 217 220 233 242 248 251 244 259 247 241 252 259 245 236 243 254 262 256 258 246 252 263 281 291 279 291 269 245 228 216 201 213 223 236 244 253 260 244 240 243 245 246 251 247 244 241 233 240
207 216 209 211 227 215 226 242 250 244 244 253 254 251 228 237 247 252 254 258 244 244 275 279 274 267 276 288 277 253 235 223 220 221 234 244 240 236 237 240 242 246 242 244 244 243 245 246 252
213 213 210 209 220 220 221 220 255 249 237 245 246 247 228 234 245 254 256 258 262 250 271 272 274 269 268 261 260 266 266 258 248 242 234 232 238 242 245 253 255 244 242 241 244 245 250 254 257
215 212 212 217 226 230 233 217 231 255 237 229 233 246 241 234 240 248 258 258 261 268 267 274 272 259 258 271 272 261 260 271 270 262 256 255 249 245 249 254 251 244 243 249 254 254 257 261 260
218 214 220 220 223 235 222 212 229 245 248 230 233 236 240 238 241 245 250 253 256 264 270 273 268 256 255 260 261 271 267 259 259 263 259 259 262 260 262 265 253 249 253 262 262 258 261 261 264
Height
5823 5822 5820 5819 5819 5816 5815 5813 5809 5804 5801 5799 5797 5796 5795 5793 5790 5788 5785 5783 5781 5780 5779 5777 5777 5779 5781 5784 5785 5789 5794 5798 5800 5803 5806 5810 5814 5816 5817 5822 5827 5830 5831 5832 5832 5833 5833 5834 5836
5818 5817 5816 5815 5815 5814 5820 5807 5803 5799 5796 5793 5791 5790 5789 5786 5782 5779 5778 5776 5774 5773 5773 5773 5773 5773 5775 5777 5779 5782 5790 5794 5795 5798 5802 5805 5809 5812 5815 5818 5823 5826 5828 5830 5830 5831 5833 5833 5834
5813 5813 5812 5810 5809 5811 5813 5801 5799 5795 5791 5788 5786 5784 5783 5780 5777 5774 5772 5770 5769 5767 5767 5767 5768 5769 5770 5772 5773 5776 5782 5787 5791 5792 5796 5801 5804 5808 5811 5815 5818 5822 5825 5828 5828 5830 5830 5831 5832
5807 5808 5808 5807 5806 5806 5803 5798 5794 5791 5785 5784 5782 5781 5776 5775 5772 5770 5767 5765 5764 5762 5762 5764 5763 5764 5764 5758 5767 5769 5773 5778 5784 5789 5792 5794 5799 5802 5805 5810 5814 5818 5822 5823 5824 5825 5828 5829 5829
5804 5802 5802 5800 5802 5800 5797 5793 5791 5787 5782 5779 5778 5776 5774 5770 5768 5766 5764 5762 5760 5758 5756 5759 5757 5756 5757 5758 5760 5764 5764 5772 5777 5783 5787 5790 5793 5796 5799 5805 5809 5814 5818 5820 5822 5824 5826 5825 5826
5800 5798 5798 5798 5800 5795 5791 5789 5786 5782 5778 5775 5773 5771 5769 5766 5764 5762 5760 5757 5756 5753 5752 5753 5749 5744 5752 5753 5749 5750 5750 5765 5773 5778 5782 5787 5789 5791 5795 5800 5805 5809 5813 5817 5819 5821 5822 5822 5824
5794 5793 5794 5794 5795 5792 5786 5785 5782 5778 5775 5772 5768 5767 5765 5761 5759 5757 5755 5753 5751 5748 5746 5748 5746 5745 5745 5749 5744 5740 5741 5761 5767 5773 5778 5783 5785 5787 5792 5797 5801 5806 5809 5813 5816 5817 5818 5820 5822
5787 5787 5788 5788 5789 5787 5780 5781 5778 5775 5771 5767 5765 5763 5761 5756 5755 5753 5751 5750 5747 5744 5739 5740 5742 5741 5742 5745 5741 5742 5744 5753 5764 5767 5771 5774 5781 5785 5789 5792 5797 5801 5805 5810 5812 5815 5815 5817 5818
5782 5781 5783 5783 5784 5782 5776 5776 5773 5771 5767 5763 5761 5758 5756 5752 5750 5748 5748 5745 5741 5738 5734 5732 5734 5735 5734 5738 5738 5738 5739 5750 5758 5764 5766 5770 5776 5780 5784 5790 5793 5796 5802 5807 5809 5812 5812 5812 5814
5775 5775 5777 5778 5777 5776 5773 5771 5769 5767 5763 5759 5756 5754 5752 5750 5747 5744 5742 5739 5734 5731 5729 5727 5724 5729 5731 5732 5737 5739 5742 5751 5757 5758 5763 5768 5774 5778 5781 5783 5787 5792 5798 5802 5806 5808 5809 5808 5810
5769 5771 5770 5771 5771 5770 5768 5767 5765 5763 5760 5755 5753 5751 5749 5747 5744 5741 5738 5735 5730 5725 5724 5722 5721 5721 5726 5729 5733 5739 5742 5747 5752 5756 5762 5765 5770 5774 5776 5779 5782 5789 5793 5799 5803 5804 5805 5804 5807
5760 5763 5763 5765 5763 5764 5763 5762 5761 5758 5755 5750 5749 5748 5745 5743 5740 5738 5735 5731 5726 5722 5721 5721 5721 5721 5724 5727 5731 5734 5740 5742 5751 5749 5757 5760 5765 5768 5772 5776 5780 5786 5791 5795 5798 5800 5801 5800 5804
5753 5757 5757 5758 5757 5758 5756 5757 5754 5754 5749 5747 5746 5744 5741 5739 5737 5736 5732 5728 5723 5720 5719 5719 5717 5719 5718 5721 5726 5730 5735 5738 5740 5748 5754 5757 5759 5763 5767 5772 5777 5783 5787 5790 5793 5795 5797 5798 5800
5748 5748 5751 5752 5751 5751 5750 5752 5748 5748 5745 5743 5742 5741 5737 5736 5735 5733 5730 5727 5722 5719 5717 5716 5714 5714 5716 5719 5721 5724 5728 5732 5738 5743 5747 5753 5755 5760 5765 5770 5773 5778 5781 5785 5788 5791 5792 5794 5795
5740 5741 5744 5746 5746 5745 5745 5747 5743 5743 5741 5739 5738 5738 5734 5733 5732 5730 5728 5724 5722 5718 5715 5713 5711 5709 5709 5712 5713 5719 5723 5729 5734 5740 5745 5748 5753 5758 5761 5764 5767 5773 5777 5780 5783 5785 5787 5788 5791
5733 5736 5738 5743 5740 5741 5741 5743 5739 5739 5737 5735 5734 5734 5732 5731 5730 5728 5726 5721 5720 5717 5713 5711 5711 5709 5708 5708 5712 5713 5718 5725 5731 5738 5742 5745 5747 5752 5755 5759 5763 5766 5771 5774 5778 5780 5784 5785 5786
5727 5731 5734 5736 5735 5735 5737 5737 5735 5735 5734 5732 5730 5730 5730 5728 5727 5726 5724 5720 5715 5714 5711 5708 5711 5709 5709 5707 5707 5710 5717 5723 5728 5734 5738 5741 5745 5749 5751 5752 5756 5761 5764 5768 5772 5775 5776 5780 5781
5723 5727 5728 5730 5734 5731 5732 5734 5732 5730 5730 5729 5727 5726 5726 5724 5724 5724 5721 5719 5715 5710 5707 5706 5709 5711 5712 5711 5712 5714 5718 5722 5726 5731 5735 5738 5740 5745 5748 5752 5755 5756 5760 5764 5767 5769 5771 5774 5775
5715 5720 5723 5726 5729 5725 5728 5729 5728 5727 5725 5725 5723 5723 5722 5722 5721 5720 5719 5717 5714 5711 5706 5706 5707 5709 5710 5711 5713 5716 5718 5721 5724 5728 5731 5734 5737 5741 5744 5746 5749 5751 5754 5758 5761 5764 5766 5768 5770
5706 5712 5716 5719 5721 5722 5723 5723 5724 5723 5723 5720 5720 5720 5720 5719 5719 5718 5717 5715 5714 5711 5708 5707 5707 5708 5710 5712 5714 5717 5719 5721 5722 5725 5728 5731 5735 5738 5740 5743 5745 5750 5753 5756 5758 5760 5761 5763 5764
5699 5705 5711 5712 5715 5716 5718 5718 5719 5719 5718 5717 5717 5717 5717 5716 5716 5716 5715 5714 5713 5711 5708 5707 5707 5709 5710 5712 5713 5716 5718 5721 5723 5726 5728 5730 5732 5735 5738 5741 5744 5747 5749 5752 5755 5756 5759 5761 5759
5692 5700 5703 5703 5707 5711 5713 5714 5715 5716 5716 5712 5711 5713 5714 5713 5714 5714 5714 5713 5712 5711 5709 5707 5707 5707 5710 5711 5712 5714 5715 5717 5719 5722 5725 5727 5730 5733 5736 5738 5741 5743 5745 5748 5749 5752 5755 5757 5756
5690 5690 5693 5697 5699 5704 5708 5709 5710 5711 5712 5711 5709 5708 5709 5711 5711 5712 5713 5712 5712 5711 5710 5709 5708 5708 5708 5709 5710 5711 5712 5714 5717 5719 5721 5724 5727 5729 5732 5734 5736 5738 5741 5743 5745 5746 5749 5751 5752
5679 5680 5686 5690 5694 5694 5704 5705 5707 5711 5710 5705 5705 5706 5707 5708 5709 5709 5711 5711 5710 5710 5710 5709 5708 5708 5708 5709 5709 5707 5707 5712 5715 5717 5719 5721 5722 5724 5726 5728 5731 5734 5736 5737 5738 5741 5744 5747 5748
5668 5672 5679 5685 5686 5690 5697 5700 5702 5704 5701 5701 5701 5703 5704 5705 5706 5706 5707 5709 5709 5709 5709 5709 5709 5710 5709 5709 5709 5708 5706 5708 5712 5714 5715 5719 5719 5717 5720 5723 5726 5728 5730 5731 5734 5737 5738 5743 5745
5660 5667 5677 5680 5682 5689 5691 5694 5697 5696 5696 5696 5698 5699 5700 5702 5702 5703 5705 5705 5706 5707 5708 5708 5707 5708 5709 5710 5709 5709 5710 5710 5713 5713 5714 5715 5716 5716 5717 5718 5720 5722 5725 5727 5730 5732 5736 5738 5740
5653 5657 5670 5674 5677 5682 5686 5689 5690 5690 5691 5693 5694 5694 5697 5698 5699 5700 5702 5703 5703 5705 5706 5706 5707 5707 5707 5708 5708 5708 5708 5709 5710 5712 5714 5713 5715 5715 5716 5717 5718 5719 5722 5724 5726 5729 5732 5733 5735
5644 5654 5660 5663 5668 5673 5680 5686 5688 5687 5688 5688 5691 5689 5691 5694 5695 5696 5698 5700 5701 5701 5702 5703 5703 5704 5705 5705 5706 5707 5707 5708 5708 5709 5710 5712 5712 5713 5714 5715 5716 5717 5718 5720 5722 5724 5725 5725 5727
5638 5643 5649 5659 5663 5668 5675 5681 5681 5680 5682 5683 5683 5685 5687 5689 5691 5692 5694 5696 5697 5698 5699 5699 5699 5700 5701 5702 5703 5703 5704 5705 5705 5705 5706 5706 5708 5709 5710 5711 5712 5713 5714 5716 5718 5719 5719 5719 5720
5631 5637 5643 5649 5658 5661 5668 5672 5673 5675 5676 5678 5678 5681 5682 5684 5686 5688 5689 5690 5692 5694 5695 5696 5696 5696 5696 5697 5699 5700 5700 5701 5702 5701 5702 5704 5704 5706 5706 5706 5707 5708 5709 5709 5710 5711 5712 5713 5713